CW9769 Weather Reports


Display with metric or nautical units.
time (UTC)temp
F
wind
direction
speed
MPH
gust
MPH
rain 1hr
in
rain 24hr
in
rain mn
in
humidity
%
barometer
mb
20260904235903 76 12 0.0 2.0 0.00 0.37 0.37 88 1014.8
20260904234902 77 12 1.0 2.0 0.00 0.37 0.37 87 1014.8
20260904233901 78 287 0.0 2.0 0.00 0.37 0.37 85 1014.5
20260904232900 78 287 2.0 2.0 0.00 0.38 0.37 84 1014.5
20260904231859 78 287 0.0 3.0 0.00 0.39 0.37 83 1014.9
20260904230858 79 287 1.0 3.0 0.00 0.42 0.37 82 1015.2
20260904225858 79 282 2.0 2.0 0.00 0.42 0.37 83 1014.9
20260904224856 78 281 1.0 3.0 0.00 0.47 0.37 86 1014.5
20260904223855 77 270 1.0 2.0 0.00 0.47 0.37 86 1014.5
20260904222854 77 51 1.0 2.0 0.00 0.55 0.37 87 1013.8
20260904221853 77 331 1.0 2.0 0.00 1.04 0.37 86 1014.5
20260904220852 77 330 1.0 2.0 0.00 1.23 0.37 85 1014.5
20260904215851 77 324 1.0 2.0 0.00 1.23 0.37 85 1014.5
20260904214850 77 308 2.0 4.0 0.00 1.23 0.37 83 1014.1
20260904213849 77 4 1.0 4.0 0.00 1.23 0.37 84 1013.8
20260904212816 77 16 2.0 3.0 0.00 1.23 0.37 84 1013.8
20260904211815 77 227 2.0 3.0 0.00 1.23 0.37 83 1013.8
20260904210815 77 229 1.0 2.0 0.00 1.23 0.37 83 1013.5
20260904205814 77 202 1.0 3.0 0.00 1.23 0.37 82 1013.5
20260904204813 77 215 2.0 3.0 0.00 1.23 0.37 83 1013.1
20260904203812 77 212 1.0 4.0 0.00 1.23 0.37 86 1013.1
20260904202811 77 224 1.0 5.0 0.00 1.23 0.37 84 1012.8
20260904201739 77 198 3.0 7.0 0.00 1.23 0.37 82 1012.8
20260904200738 78 227 4.0 7.0 0.00 1.23 0.37 82 1013.1
20260904195738 78 217 2.0 6.0 0.00 1.23 0.37 81 1013.5
20260904194736 78 258 3.0 6.0 0.00 1.23 0.37 81 1013.8
20260904193735 78 276 2.0 4.0 0.00 1.23 0.37 83 1014.2
20260904192734 77 256 2.0 5.0 0.00 1.23 0.37 82 1014.5
20260904191702 77 295 2.0 4.0 0.00 1.23 0.37 86 1015.2
20260904190700 75 331 1.0 2.0 0.00 1.23 0.37 90 1015.1
20260904185628 74 321 0.0 9.0 0.00 1.23 0.37 91 1015.1
20260904184627 73 82 3.0 9.0 0.01 1.23 0.37 92 1014.7
20260904183626 72 263 4.0 10.0 0.01 1.23 0.37 93 1014.7
20260904182625 71 234 6.0 10.0 0.02 1.23 0.37 92 1014.0
20260904181553 71 254 3.0 9.0 0.02 1.23 0.37 93 1014.3
20260904180552 71 224 5.0 8.0 0.02 1.23 0.37 93 1014.6
20260904175552 71 292 4.0 10.0 0.02 1.23 0.37 92 1016.3
20260904174519 72 345 6.0 12.0 0.01 1.22 0.36 92 1017.4
20260904173447 73 346 7.0 12.0 0.00 1.21 0.35 92 1017.8
20260904172415 73 353 7.0 11.0 0.00 1.21 0.35 93 1017.8
20260904171415 74 3 6.0 10.0 0.00 1.21 0.35 92 1017.8
20260904170414 74 6 5.0 11.0 0.00 1.21 0.35 91 1017.5
20260904165413 75 25 7.0 13.0 0.01 1.21 0.35 92 1017.1
20260904164341 75 36 8.0 13.0 0.01 1.21 0.35 93 1017.1
20260904163341 74 13 7.0 12.0 0.01 1.21 0.35 94 1017.1
20260904162339 73 12 7.0 11.0 0.06 1.21 0.35 95 1017.1
20260904161338 73 22 5.0 13.0 0.20 1.21 0.35 94 1017.1
20260904160337 73 14 6.0 15.0 0.20 1.21 0.35 96 1017.1
20260904155336 72 22 8.0 15.0 0.19 1.20 0.34 96 1017.0
20260904154336 71 21 6.0 13.0 0.19 1.20 0.34 96 1017.4
20260904153334 71 41 8.0 13.0 0.19 1.20 0.34 95 1017.0
20260904152334 71 34 7.0 12.0 0.14 1.15 0.29 94 1016.7
20260904151333 71 16 8.0 11.0 0.00 1.01 0.15 95 1016.7
20260904150332 71 83 2.0 2.0 0.00 1.01 0.15 95 1015.7
20260904145331 70 114 1.0 2.0 0.01 1.01 0.15 96 1015.3
20260904144331 70 235 2.0 3.0 0.02 1.01 0.15 96 1015.6
20260904143330 69 56 1.0 3.0 0.05 1.01 0.15 96 1015.6
20260904142329 69 131 1.0 4.0 0.06 1.01 0.15 96 1015.6
20260904141328 69 309 1.0 5.0 0.07 1.01 0.15 96 1015.9
20260904140328 69 271 3.0 9.0 0.08 1.01 0.15 95 1015.6
20260904135327 69 265 3.0 9.0 0.08 1.00 0.14 96 1015.6
20260904134326 69 268 3.0 11.0 0.08 0.99 0.13 97 1015.9
20260904133326 69 272 6.0 11.0 0.06 0.96 0.10 97 1015.9
20260904132325 68 323 2.0 3.0 0.06 0.95 0.09 97 1016.3
20260904131324 68 335 1.0 3.0 0.06 0.94 0.08 97 1015.9
20260904130323 68 313 2.0 4.0 0.05 0.93 0.07 97 1016.6
20260904125322 68 276 2.0 7.0 0.05 0.92 0.06 97 1015.9
20260904124321 68 327 2.0 7.0 0.05 0.91 0.05 97 1016.6
20260904123321 68 307 3.0 4.0 0.04 0.90 0.04 97 1016.6
20260904122320 68 302 2.0 3.0 0.03 0.89 0.03 97 1016.2
20260904121319 68 239 1.0 3.0 0.02 0.88 0.02 97 1015.9
20260904120318 68 291 1.0 2.0 0.02 0.88 0.02 97 1015.9
20260904115316 68 302 1.0 2.0 0.01 0.87 0.01 97 1015.6
20260904114315 68 302 1.0 2.0 0.00 0.86 0.00 97 1015.6
20260904113315 67 327 2.0 2.0 0.00 0.86 0.00 97 1015.9
20260904112243 67 227 0.0 2.0 0.00 0.86 0.00 97 1015.6
20260904111211 67 227 1.0 2.0 0.00 0.86 0.00 97 1015.6
20260904110210 67 181 0.0 2.0 0.00 0.86 0.00 97 1015.2
20260904105210 67 181 1.0 2.0 0.00 0.86 0.00 96 1015.2
20260904104208 67 189 0.0 2.0 0.00 0.86 0.00 97 1014.9
20260904103136 67 216 1.0 3.0 0.00 0.86 0.00 97 1014.9
20260904102136 67 191 1.0 2.0 0.00 0.86 0.00 96 1014.6
20260904101135 67 187 0.0 2.0 0.00 0.86 0.00 96 1014.7
20260904100134 67 198 1.0 2.0 0.00 0.86 0.00 96 1014.8
20260904095133 67 183 1.0 2.0 0.00 0.86 0.00 96 1014.9
20260904094132 67 232 1.0 1.0 0.00 0.86 0.00 96 1015.3
20260904093131 67 82 0.0 1.0 0.00 0.86 0.00 96 1015.3
20260904092131 67 82 0.0 2.0 0.00 0.86 0.00 96 1015.7
20260904091059 67 82 0.0 2.0 0.00 0.86 0.00 96 1015.4
20260904090058 67 82 0.0 2.0 0.00 0.86 0.00 96 1015.4
20260904085057 67 82 0.0 2.0 0.00 0.86 0.00 96 1015.4
20260904084025 67 82 0.0 2.0 0.00 0.86 0.00 96 1015.5
20260904083024 67 82 1.0 2.0 0.00 0.86 0.00 96 1015.1
20260904082023 67 173 0.0 1.0 0.00 0.86 0.00 96 1015.2
20260904081023 67 116 1.0 2.0 0.00 0.86 0.00 96 1015.2
20260904080022 67 116 0.0 2.0 0.00 0.86 0.00 96 1015.5
20260904075021 67 116 0.0 2.0 0.00 0.86 0.00 96 1015.6
20260904073949 68 116 1.0 2.0 0.00 0.86 0.00 95 1015.6
20260904072917 68 116 0.0 2.0 0.00 0.86 0.00 96 1015.6
20260904071916 68 116 0.0 2.0 0.00 0.86 0.00 95 1015.6
20260904070915 68 116 2.0 2.0 0.00 0.86 0.00 96 1015.6
20260904065914 68 116 0.0 0.0 0.00 0.86 0.00 96 1015.6
20260904064843 68 116 0.0 0.0 0.00 0.86 0.00 96 1015.6
20260904063811 68 116 0.0 2.0 0.00 0.86 0.00 96 1015.9
20260904062810 68 116 0.0 2.0 0.00 0.86 0.00 96 1015.9
20260904061810 68 99 0.0 2.0 0.00 0.86 0.00 96 1015.6
20260904060809 68 99 1.0 3.0 0.00 0.86 0.00 96 1015.5
20260904055808 68 92 1.0 6.0 0.00 0.86 0.00 96 1015.9
20260904054807 68 113 0.0 6.0 0.00 0.86 0.00 96 1015.6
20260904053807 68 276 1.0 3.0 0.00 0.86 0.00 95 1015.6
20260904052806 69 275 2.0 3.0 0.00 0.86 0.00 95 1015.6
20260904051734 69 250 1.0 4.0 0.00 0.86 0.00 95 1015.5
20260904050733 69 233 1.0 4.0 0.00 0.86 0.00 96 1015.6
20260904045700 68 195 2.0 3.0 0.00 0.86 0.00 95 1015.5
20260904044659 69 168 1.0 5.0 0.00 0.86 0.00 95 1015.5
20260904043658 69 235 2.0 5.0 0.00 0.86 0.00 95 1015.5
20260904042657 69 238 1.0 4.0 0.00 0.86 0.00 95 1015.4
20260904041657 69 209 2.0 4.0 0.00 0.86 0.00 95 1015.5
20260904040656 69 219 1.0 2.0 0.00 0.86 0.00 95 1015.5
20260904035624 69 106 0.0 2.0 0.00 0.86 0.86 95 1015.4
20260904034623 69 173 1.0 2.0 0.00 0.86 0.86 95 1015.4
20260904033551 69 103 1.0 3.0 0.00 0.86 0.86 95 1015.1
20260904032551 69 213 1.0 3.0 0.00 0.86 0.86 95 1015.1
20260904031550 69 199 1.0 5.0 0.00 0.86 0.86 95 1015.1
20260904030518 69 223 3.0 6.0 0.00 0.86 0.86 95 1015.0
20260904025446 69 212 3.0 6.0 0.00 0.86 0.86 94 1015.0
20260904024445 69 224 1.0 7.0 0.00 0.86 0.86 95 1015.0
20260904023443 69 215 2.0 7.0 0.00 0.86 0.86 95 1015.0
20260904022442 69 230 3.0 8.0 0.00 0.86 0.86 94 1015.0
20260904021441 69 219 3.0 8.0 0.00 0.86 0.86 94 1014.6
20260904020440 69 230 2.0 8.0 0.00 0.86 0.86 94 1014.6
20260904015408 69 222 3.0 8.0 0.00 0.86 0.86 94 1014.6
20260904014407 69 218 4.0 10.0 0.00 0.86 0.86 95 1014.6
20260904013406 69 232 5.0 9.0 0.00 0.86 0.86 95 1014.6
20260904012405 69 230 4.0 7.0 0.00 0.86 0.86 95 1014.6
20260904011404 69 227 3.0 7.0 0.00 0.86 0.86 95 1014.6
20260904010403 69 238 2.0 5.0 0.00 0.86 0.86 95 1014.6
20260904005402 69 230 2.0 6.0 0.00 0.86 0.86 95 1014.6
20260904004401 69 207 2.0 6.0 0.00 0.86 0.86 95 1014.5
20260904003400 69 220 2.0 5.0 0.01 0.86 0.86 95 1014.8
20260904002359 69 222 2.0 5.0 0.01 0.86 0.86 95 1014.8
20260904001358 69 192 1.0 5.0 0.04 0.86 0.86 95 1014.8